FW8891 Weather Reports


time (UTC)temp
C
wind
direction
speed
KPH
gust
KPH
rain 1hr
cm
rain 24hr
cm
rain mn
cm
humidity
%
barometer
mb
20260507154059 28 89 8.0 17.7 0.00 0.00 0.00 16 1014.6
20260507153559 28 44 9.7 17.7 0.00 0.00 0.00 16 1014.6
20260507153102 27 31 8.0 17.7 0.00 0.00 0.00 16 1014.7
20260507152558 27 67 8.0 17.7 0.00 0.00 0.00 17 1014.6
20260507152057 27 83 6.4 17.7 0.00 0.00 0.00 17 1014.5
20260507151559 27 84 8.0 17.7 0.00 0.00 0.00 18 1014.5
20260507151058 27 93 8.0 14.5 0.00 0.00 0.00 19 1014.5
20260507150558 27 342 8.0 17.7 0.00 0.00 0.00 19 1014.5
20260507150058 26 56 9.7 19.3 0.00 0.00 0.00 20 1014.6
20260507145558 26 75 9.7 20.9 0.00 0.00 0.00 20 1014.7
20260507145057 26 60 11.3 20.9 0.00 0.00 0.00 20 1014.6
20260507144557 26 72 8.0 19.3 0.00 0.00 0.00 21 1014.6
20260507144058 25 68 8.0 19.3 0.00 0.00 0.00 22 1014.6
20260507143559 25 60 9.7 19.3 0.00 0.00 0.00 23 1014.7
20260507143058 25 58 0.0 3.2 0.00 0.00 0.00 26 1014.6
20260507142558 24 0 0.0 4.8 0.00 0.00 0.00 28 1014.6
20260507142058 23 57 1.6 4.8 0.00 0.00 0.00 29 1014.5
20260507141559 22 0 0.0 0.0 0.00 0.00 0.00 32 1014.5
20260507141058 21 0 0.0 0.0 0.00 0.00 0.00 35 1014.6
20260507140557 20 0 0.0 0.0 0.00 0.00 0.00 35 1014.6
20260507140104 20 0 0.0 0.0 0.00 0.00 0.00 36 1014.6
20260507135602 19 0 0.0 1.6 0.00 0.00 0.00 36 1014.6
20260507135058 19 0 0.0 3.2 0.00 0.00 0.00 37 1014.5
20260507134600 19 0 0.0 3.2 0.00 0.00 0.00 37 1014.6
20260507134057 18 276 0.0 3.2 0.00 0.00 0.00 38 1014.4
20260507133558 18 0 0.0 0.0 0.00 0.00 0.00 38 1014.4
20260507133101 18 0 0.0 0.0 0.00 0.00 0.00 38 1014.3
20260507132558 18 0 0.0 1.6 0.00 0.00 0.00 37 1014.3
20260507132058 17 0 0.0 3.2 0.00 0.00 0.00 38 1014.3
20260507131602 17 247 1.6 3.2 0.00 0.00 0.00 38 1014.2
20260507131058 17 212 0.0 1.6 0.00 0.00 0.00 38 1014.1
20260507130558 17 255 0.0 0.0 0.00 0.00 0.00 37 1014.1
20260507130110 18 0 0.0 0.0 0.00 0.00 0.00 35 1014.1
20260507125558 18 0 0.0 3.2 0.00 0.00 0.00 35 1014.1
20260507125100 18 0 0.0 8.0 0.00 0.00 0.00 35 1013.9
20260507124558 18 314 1.6 8.0 0.00 0.00 0.00 35 1013.9
20260507124058 18 254 0.0 3.2 0.00 0.00 0.00 35 1013.8
20260507123600 18 0 0.0 3.2 0.00 0.00 0.00 35 1013.9
20260507123100 18 0 0.0 6.4 0.00 0.00 0.00 35 1013.8
20260507122558 20 301 1.6 6.4 0.00 0.00 0.00 34 1013.9
20260507122058 20 3 1.6 4.8 0.00 0.00 0.00 33 1013.9
20260507121606 20 351 0.0 6.4 0.00 0.00 0.00 33 1013.9
20260507121058 20 68 3.2 11.3 0.00 0.00 0.00 32 1013.9
20260507120604 20 118 1.6 11.3 0.00 0.00 0.00 32 1013.9
20260507115558 21 49 1.6 12.9 0.00 0.00 0.00 32 1013.9
20260507115058 21 18 3.2 12.9 0.00 0.00 0.00 32 1014.0
20260507114613 21 68 4.8 12.9 0.00 0.00 0.00 32 1014.1
20260507114100 21 44 6.4 12.9 0.00 0.00 0.00 32 1014.1
20260507113558 21 51 3.2 9.7 0.00 0.00 0.00 32 1014.2
20260507113100 20 68 4.8 9.7 0.00 0.00 0.00 32 1014.2
20260507112602 20 289 3.2 9.7 0.00 0.00 0.00 33 1014.3
20260507112101 20 314 0.0 11.3 0.00 0.00 0.00 33 1014.3
20260507111606 20 315 3.2 12.9 0.00 0.00 0.00 32 1014.3
20260507111058 20 342 3.2 12.9 0.00 0.00 0.00 34 1014.3
20260507110559 20 330 1.6 6.4 0.00 0.00 0.00 34 1014.4
20260507110111 20 319 1.6 4.8 0.00 0.00 0.00 33 1014.4
20260507105558 19 352 1.6 4.8 0.00 0.00 0.00 33 1014.5
20260507105058 19 303 1.6 4.8 0.00 0.00 0.00 34 1014.4
20260507104558 19 316 0.0 4.8 0.00 0.00 0.00 34 1014.5
20260507104057 19 295 0.0 6.4 0.00 0.00 0.00 34 1014.5
20260507103557 19 348 3.2 6.4 0.00 0.00 0.00 34 1014.5
20260507103058 19 309 1.6 4.8 0.00 0.00 0.00 34 1014.5
20260507102558 18 335 0.0 1.6 0.00 0.00 0.00 35 1014.6
20260507102058 18 0 0.0 1.6 0.00 0.00 0.00 35 1014.6
20260507101605 18 335 0.0 1.6 0.00 0.00 0.00 36 1014.6
20260507101058 17 0 0.0 1.6 0.00 0.00 0.00 36 1014.6
20260507100557 17 0 0.0 1.6 0.00 0.00 0.00 35 1014.6
20260507100057 17 1 0.0 3.2 0.00 0.00 0.00 35 1014.6
20260507095558 18 0 0.0 3.2 0.00 0.00 0.00 35 1014.6
20260507095101 18 1 0.0 1.6 0.00 0.00 0.00 34 1014.6
20260507094558 18 0 0.0 3.2 0.00 0.00 0.00 34 1014.6
20260507094058 18 297 0.0 6.4 0.00 0.00 0.00 33 1014.6
20260507093558 18 323 1.6 6.4 0.00 0.00 0.00 33 1014.6
20260507093059 18 349 1.6 4.8 0.00 0.00 0.00 33 1014.6
20260507092601 18 359 3.2 4.8 0.00 0.00 0.00 33 1014.6
20260507092059 18 0 1.6 3.2 0.00 0.00 0.00 33 1014.6
20260507091601 18 323 1.6 3.2 0.00 0.00 0.00 32 1014.6
20260507091058 19 315 0.0 4.8 0.00 0.00 0.00 32 1014.6
20260507090557 19 315 1.6 6.4 0.00 0.00 0.00 32 1014.7
20260507090104 20 324 3.2 6.4 0.00 0.00 0.00 31 1014.7
20260507085557 20 325 3.2 6.4 0.00 0.00 0.00 31 1014.7
20260507085058 20 339 3.2 6.4 0.00 0.00 0.00 31 1014.8
20260507084559 20 323 1.6 4.8 0.00 0.00 0.00 31 1014.7
20260507084103 20 276 1.6 6.4 0.00 0.00 0.00 32 1014.7
20260507083558 20 314 1.6 8.0 0.00 0.00 0.00 31 1014.9
20260507083059 19 330 3.2 8.0 0.00 0.00 0.00 31 1014.9
20260507082558 19 307 3.2 9.7 0.00 0.00 0.00 32 1014.9
20260507082100 19 319 3.2 9.7 0.00 0.00 0.00 31 1015.0
20260507081604 19 338 3.2 8.0 0.00 0.00 0.00 32 1014.9
20260507081100 19 326 1.6 3.2 0.00 0.00 0.00 31 1014.9
20260507080559 19 309 0.0 3.2 0.00 0.00 0.00 31 1014.9
20260507075558 19 295 1.6 4.8 0.00 0.00 0.00 31 1014.9
20260507075100 19 328 1.6 4.8 0.00 0.00 0.00 31 1015.0
20260507074611 19 328 3.2 4.8 0.00 0.00 0.00 31 1015.0
20260507074059 19 325 3.2 4.8 0.00 0.00 0.00 31 1015.0
20260507073559 20 332 3.2 4.8 0.00 0.00 0.00 31 1015.1
20260507073059 20 335 3.2 4.8 0.00 0.00 0.00 30 1015.1
20260507072600 20 342 3.2 4.8 0.00 0.00 0.00 30 1015.1
20260507072103 20 330 3.2 6.4 0.00 0.00 0.00 30 1015.0
20260507071559 20 323 3.2 6.4 0.00 0.00 0.00 30 1014.9
20260507071059 20 323 3.2 6.4 0.00 0.00 0.00 30 1015.0
20260507070559 20 302 4.8 9.7 0.00 0.00 0.00 30 1015.0
20260507070100 20 330 4.8 9.7 0.00 0.00 0.00 30 1015.0
20260507065603 20 340 4.8 8.0 0.00 0.00 0.00 30 1015.0
20260507065059 20 337 4.8 6.4 0.00 0.00 0.00 30 1015.0
20260507064558 20 332 3.2 4.8 0.00 0.00 0.00 32 1015.0
20260507064100 20 338 0.0 0.0 0.00 0.00 0.00 32 1015.0
20260507063559 20 0 0.0 0.0 0.00 0.00 0.00 33 1015.0
20260507063059 20 0 0.0 0.0 0.00 0.00 0.00 33 1014.9
20260507062559 20 0 0.0 0.0 0.00 0.00 0.00 32 1014.9
20260507062100 20 0 0.0 3.2 0.00 0.00 0.00 32 1014.9
20260507061607 20 0 0.0 3.2 0.00 0.00 0.00 32 1015.0
20260507061100 20 0 1.6 3.2 0.00 0.00 0.00 31 1014.9
20260507060559 20 0 0.0 1.6 0.00 0.00 0.00 32 1014.9
20260507060059 20 0 0.0 1.6 0.00 0.00 0.00 32 1014.8
20260507055559 20 0 0.0 1.6 0.00 0.00 0.00 33 1014.9
20260507055059 20 0 0.0 1.6 0.00 0.00 0.00 31 1015.0
20260507054639 21 0 0.0 1.6 0.00 0.00 0.00 32 1014.9
20260507054059 21 0 0.0 0.0 0.00 0.00 0.00 31 1014.9
20260507053600 21 0 0.0 0.0 0.00 0.00 0.00 32 1015.0
20260507053100 21 0 0.0 1.6 0.00 0.00 0.00 32 1015.0
20260507052600 21 0 0.0 1.6 0.00 0.00 0.00 31 1015.0
20260507052100 21 0 0.0 1.6 0.00 0.00 0.00 31 1015.0
20260507051559 21 51 0.0 1.6 0.00 0.00 0.00 30 1015.0
20260507051059 21 0 0.0 1.6 0.00 0.00 0.00 30 1014.9
20260507050559 21 139 0.0 1.6 0.00 0.00 0.00 31 1014.7
20260507050100 21 0 0.0 1.6 0.00 0.00 0.00 31 1014.7
20260507045600 21 0 0.0 1.6 0.00 0.00 0.00 31 1014.7
20260507045059 21 0 0.0 1.6 0.00 0.00 0.00 31 1014.6
20260507044602 21 139 0.0 1.6 0.00 0.00 0.00 31 1014.5
20260507044059 21 0 0.0 0.0 0.00 0.00 0.00 31 1014.6
20260507043558 22 0 0.0 1.6 0.00 0.00 0.00 30 1014.6
20260507043057 22 0 0.0 1.6 0.00 0.00 0.00 31 1014.5
20260507042558 21 0 0.0 1.6 0.00 0.00 0.00 30 1014.5
20260507042058 22 0 0.0 0.0 0.00 0.00 0.00 30 1014.5
20260507041604 22 0 0.0 1.6 0.00 0.00 0.00 31 1014.4
20260507041058 23 0 0.0 1.6 0.00 0.00 0.00 29 1014.3
20260507040558 23 0 0.0 1.6 0.00 0.00 0.00 29 1014.2
20260507040058 23 0 0.0 1.6 0.00 0.00 0.00 28 1014.1
20260507035557 23 0 0.0 1.6 0.00 0.00 0.00 28 1014.1
20260507035058 23 0 0.0 1.6 0.00 0.00 0.00 28 1013.9
20260507034601 23 0 0.0 1.6 0.00 0.00 0.00 28 1013.9
20260507034058 24 0 0.0 3.2 0.00 0.00 0.00 27 1013.9
20260507033558 24 139 0.0 3.2 0.00 0.00 0.00 27 1013.8
20260507033105 24 0 0.0 3.2 0.00 0.00 0.00 27 1013.8
20260507032559 24 0 0.0 4.8 0.00 0.00 0.00 27 1013.7
20260507032058 25 180 3.2 4.8 0.00 0.00 0.00 26 1013.6
20260507031608 25 161 1.6 4.8 0.00 0.00 0.00 26 1013.6
20260507031059 25 169 1.6 6.4 0.00 0.00 0.00 25 1013.6
20260507030558 25 173 3.2 8.0 0.00 0.00 0.00 25 1013.5
20260507030059 25 174 4.8 9.7 0.00 0.00 0.00 25 1013.4
20260507025601 25 193 4.8 9.7 0.00 0.00 0.00 25 1013.3
20260507025058 25 215 4.8 9.7 0.00 0.00 0.00 25 1013.2
20260507024600 26 268 4.8 12.9 0.00 0.00 0.00 25 1013.2
20260507024058 26 174 6.4 12.9 0.00 0.00 0.00 25 1013.1
20260507023558 26 233 4.8 12.9 0.00 0.00 0.00 25 1013.1
20260507023106 26 253 4.8 12.9 0.00 0.00 0.00 24 1013.1
20260507022559 26 240 6.4 12.9 0.00 0.00 0.00 24 1013.0
20260507022058 26 226 4.8 11.3 0.00 0.00 0.00 24 1013.0
20260507021602 26 234 4.8 11.3 0.00 0.00 0.00 24 1012.9
20260507021101 26 232 3.2 11.3 0.00 0.00 0.00 24 1012.9
20260507020559 26 134 4.8 11.3 0.00 0.00 0.00 25 1012.8
20260507020101 27 146 4.8 14.5 0.00 0.00 0.00 25 1012.8
20260507015558 27 162 6.4 14.5 0.00 0.00 0.00 24 1012.9
20260507015058 27 111 4.8 11.3 0.00 0.00 0.00 24 1012.8
20260507014605 27 155 6.4 11.3 0.00 0.00 0.00 24 1012.8
20260507014058 27 136 4.8 12.9 0.00 0.00 0.00 24 1012.8
20260507013558 27 136 8.0 16.1 0.00 0.00 0.00 24 1012.8
20260507013058 27 135 6.4 16.1 0.00 0.00 0.00 24 1012.8
20260507012558 27 121 8.0 14.5 0.00 0.00 0.00 24 1012.7
20260507012100 27 99 8.0 14.5 0.00 0.00 0.00 25 1012.7
20260507011559 27 121 8.0 14.5 0.00 0.00 0.00 24 1012.7
20260507011100 28 140 4.8 14.5 0.00 0.00 0.00 24 1012.7
20260507010558 27 114 9.7 14.5 0.00 0.00 0.00 24 1012.8
20260507010105 28 121 6.4 14.5 0.00 0.00 0.00 24 1012.8
20260507005559 28 150 8.0 12.9 0.00 0.00 0.00 24 1012.8
20260507005058 28 148 8.0 17.7 0.00 0.00 0.00 24 1012.7
20260507004600 28 148 8.0 17.7 0.00 0.00 0.00 25 1012.7
20260507004058 28 138 8.0 17.7 0.00 0.00 0.00 24 1012.7
20260507003559 28 185 8.0 12.9 0.00 0.00 0.00 23 1012.7
20260507003100 28 236 6.4 12.9 0.00 0.00 0.00 23 1012.7
20260507002558 28 181 9.7 14.5 0.00 0.00 0.00 23 1012.7
20260507002059 28 251 8.0 16.1 0.00 0.00 0.00 23 1012.7
20260507001604 28 180 6.4 16.1 0.00 0.00 0.00 23 1012.7
20260507001058 29 186 4.8 16.1 0.00 0.00 0.00 23 1012.7
20260507000559 29 92 8.0 16.1 0.00 0.00 0.00 23 1012.7
20260507000058 29 152 3.2 12.9 0.00 0.00 0.00 22 1012.7
20260506235559 29 257 6.4 12.9 0.00 0.00 0.00 23 1012.7
20260506235059 29 208 3.2 16.1 0.00 0.00 0.00 24 1012.7
20260506234558 29 229 6.4 16.1 0.00 0.00 0.00 23 1012.7
20260506234058 28 199 6.4 14.5 0.00 0.00 0.00 24 1012.7
20260506233559 29 154 9.7 14.5 0.00 0.00 0.00 23 1012.8
20260506233117 29 178 4.8 17.7 0.00 0.00 0.00 23 1012.9
20260506232558 29 181 4.8 17.7 0.00 0.00 0.00 23 1013.0
20260506232058 29 221 8.0 17.7 0.00 0.00 0.00 23 1013.0
20260506231559 29 179 3.2 14.5 0.00 0.00 0.00 24 1013.1
20260506231100 29 105 6.4 14.5 0.00 0.00 0.00 23 1013.2
20260506230558 29 211 4.8 12.9 0.00 0.00 0.00 24 1013.1
20260506230058 28 183 3.2 9.7 0.00 0.00 0.00 24 1013.2
20260506225558 28 167 3.2 9.7 0.00 0.00 0.00 23 1013.1
20260506225059 29 0 1.6 16.1 0.00 0.00 0.00 23 1013.2
20260506224559 29 273 1.6 17.7 0.00 0.00 0.00 23 1013.3
20260506224059 29 224 9.7 17.7 0.00 0.00 0.00 24 1013.4
20260506223601 28 122 4.8 12.9 0.00 0.00 0.00 24 1013.4
20260506223102 28 146 3.2 12.9 0.00 0.00 0.00 24 1013.5
20260506222559 28 145 6.4 14.5 0.00 0.00 0.00 25 1013.6
20260506222059 28 118 8.0 17.7 0.00 0.00 0.00 24 1013.6
20260506221600 29 210 9.7 17.7 0.00 0.00 0.00 24 1013.6
20260506221059 29 85 11.3 17.7 0.00 0.00 0.00 23 1013.6
20260506220559 28 200 6.4 17.7 0.00 0.00 0.00 24 1013.6
20260506220100 28 71 6.4 11.3 0.00 0.00 0.00 23 1013.8
20260506215559 29 160 4.8 11.3 0.00 0.00 0.00 24 1013.9
20260506215059 28 224 6.4 16.1 0.00 0.00 0.00 24 1013.9
20260506214558 28 124 4.8 16.1 0.00 0.00 0.00 25 1014.0
20260506214100 28 100 4.8 12.9 0.00 0.00 0.00 24 1014.1
20260506213559 28 132 4.8 12.9 0.00 0.00 0.00 24 1014.3
20260506213118 28 242 4.8 12.9 0.00 0.00 0.00 24 1014.4
20260506212559 28 237 6.4 12.9 0.00 0.00 0.00 25 1014.5
20260506212102 28 205 4.8 12.9 0.00 0.00 0.00 24 1014.6
20260506211559 28 162 6.4 17.7 0.00 0.00 0.00 24 1014.7
20260506211059 28 209 8.0 17.7 0.00 0.00 0.00 25 1014.8
20260506210558 28 112 1.6 14.5 0.00 0.00 0.00 24 1014.7
20260506210100 27 0 4.8 14.5 0.00 0.00 0.00 25 1014.9
20260506205558 27 97 6.4 14.5 0.00 0.00 0.00 26 1014.9
20260506205059 28 125 4.8 12.9 0.00 0.00 0.00 25 1015.1
20260506204558 28 112 1.6 17.7 0.00 0.00 0.00 24 1015.1
20260506204058 28 191 8.0 17.7 0.00 0.00 0.00 25 1015.2
20260506203602 28 172 9.7 17.7 0.00 0.00 0.00 25 1015.1
20260506203100 27 252 3.2 14.5 0.00 0.00 0.00 26 1015.2
20260506202558 28 72 4.8 9.7 0.00 0.00 0.00 24 1015.2
20260506202059 28 197 4.8 9.7 0.00 0.00 0.00 25 1015.3
20260506201558 28 279 3.2 11.3 0.00 0.00 0.00 24 1015.3
20260506201058 28 226 3.2 11.3 0.00 0.00 0.00 24 1015.4
20260506200558 28 306 1.6 8.0 0.00 0.00 0.00 24 1015.4
20260506200057 27 278 3.2 8.0 0.00 0.00 0.00 25 1015.4
20260506195559 27 350 1.6 8.0 0.00 0.00 0.00 24 1015.5
20260506195059 27 101 1.6 8.0 0.00 0.00 0.00 25 1015.5
20260506194633 27 340 3.2 11.3 0.00 0.00 0.00 24 1015.6
20260506194101 28 217 3.2 17.7 0.00 0.00 0.00 24 1015.7
20260506193559 27 241 8.0 17.7 0.00 0.00 0.00 25 1015.7
20260506193105 27 247 4.8 11.3 0.00 0.00 0.00 26 1015.8
20260506192559 27 63 1.6 12.9 0.00 0.00 0.00 25 1015.8
20260506192058 27 251 4.8 12.9 0.00 0.00 0.00 24 1015.8
20260506191558 27 283 6.4 12.9 0.00 0.00 0.00 24 1015.8
20260506191100 27 336 4.8 12.9 0.00 0.00 0.00 24 1015.8
20260506190559 27 259 3.2 8.0 0.00 0.00 0.00 24 1015.9
20260506185559 27 0 1.6 9.7 0.00 0.00 0.00 25 1015.9
20260506185059 27 91 0.0 9.7 0.00 0.00 0.00 25 1016.0
20260506184605 26 124 4.8 9.7 0.00 0.00 0.00 25 1016.1
20260506184059 26 259 1.6 11.3 0.00 0.00 0.00 25 1016.2
20260506183559 26 272 3.2 12.9 0.00 0.00 0.00 27 1016.2
20260506183059 26 237 4.8 16.1 0.00 0.00 0.00 25 1016.3
20260506182558 26 165 4.8 16.1 0.00 0.00 0.00 25 1016.4
20260506182058 26 197 4.8 12.9 0.00 0.00 0.00 26 1016.4
20260506181558 26 128 4.8 11.3 0.00 0.00 0.00 28 1016.4
20260506181101 26 184 4.8 11.3 0.00 0.00 0.00 27 1016.6
20260506180601 26 259 4.8 9.7 0.00 0.00 0.00 27 1016.6
20260506180107 26 30 0.0 9.7 0.00 0.00 0.00 26 1016.6
20260506175600 26 174 3.2 9.7 0.00 0.00 0.00 28 1016.6
20260506175103 26 177 4.8 9.7 0.00 0.00 0.00 28 1016.7
20260506174601 26 286 1.6 8.0 0.00 0.00 0.00 28 1016.7
20260506174102 26 187 4.8 8.0 0.00 0.00 0.00 29 1016.7
20260506173601 25 128 0.0 4.8 0.00 0.00 0.00 30 1016.7
20260506173059 25 340 1.6 9.7 0.00 0.00 0.00 28 1016.7
20260506172559 25 266 1.6 9.7 0.00 0.00 0.00 30 1016.8
20260506172100 25 273 1.6 8.0 0.00 0.00 0.00 30 1016.7
20260506171603 25 207 3.2 8.0 0.00 0.00 0.00 30 1016.7
20260506171100 24 188 1.6 8.0 0.00 0.00 0.00 32 1016.7
20260506170559 23 324 1.6 4.8 0.00 0.00 0.00 31 1016.6
20260506170113 23 257 1.6 4.8 0.00 0.00 0.00 32 1016.7
20260506165603 23 336 1.6 4.8 0.00 0.00 0.00 32 1016.6
20260506165101 23 325 0.0 4.8 0.00 0.00 0.00 32 1016.7
20260506164607 23 314 0.0 6.4 0.00 0.00 0.00 32 1016.7
20260506164101 23 87 1.6 6.4 0.00 0.00 0.00 31 1016.6
20260506163602 23 250 0.0 9.7 0.00 0.00 0.00 33 1016.6
20260506163124 23 304 1.6 9.7 0.00 0.00 0.00 33 1016.7
20260506162600 22 289 0.0 4.8 0.00 0.00 0.00 34 1016.6
20260506162100 22 51 0.0 4.8 0.00 0.00 0.00 33 1016.6
20260506161614 22 22 1.6 6.4 0.00 0.00 0.00 33 1016.6
20260506161100 22 302 1.6 6.4 0.00 0.00 0.00 33 1016.6
20260506160600 22 173 1.6 6.4 0.00 0.00 0.00 34 1016.5
20260506160059 22 107 1.6 3.2 0.00 0.00 0.00 33 1016.6
20260506155601 23 132 0.0 3.2 0.00 0.00 0.00 33 1016.6
20260506155101 22 0 0.0 3.2 0.00 0.00 0.00 33 1016.6
20260506154624 22 77 0.0 3.2 0.00 0.00 0.00 33 1016.5